Starlink 3807

operational
NORAD ID: 52353 Int'l Des: 2022-045 Owner: SPXS Country: US Constellation: starlink
LEOCIRCULAR

Starlink 3807について

説明を読み込み中...

リアルタイム位置

3D地球を読み込み中...

次回通過

高度履歴

Altitude vs Time

uPlot chart will show altitude changes over time

軌道要素

1 52353U 22045Y 25306.44542855 .00000979 00000-0 79603-4 0 9998
2 52353 53.2185 50.3399 0001357 88.1795 271.9353 15.08827365196570
Epoch: Nov 2, 2025 • Age: 23 hours

現在のステータス

高度 557.7 km
速度 7.58 km/s
衛星直下点 -49.41°S, 92.43°E
打ち上げ日 Apr 29, 2022
運用期間 3.5 years
タイプ internet

技術仕様

分類 Payload
質量 297.00 kg
乾燥質量 275.00 kg
総質量 297.00 kg
長さ 0.20 m
直径 2.80 m
スパン 9.00 m
形状 Box + pan
製造者 SPXS
バスタイプ Starlink
フェーズステータス In Orbit
所有者/国 SPXS/US

大規模コンステレーション

Loading constellations...